Weather in Siuch

Russia / Ulyanovsk Oblast     54°20′08″N   47°46′33″E
temp.,
°C
wind,
m/s
gust,
m/s
humid.,
%
clouds,
%
prec.,
mm/h
press.,
hPa
HPBL,
m
12 april, mon
mon1201:00+4nne3899100 0.0 1033205
04:00+4ne51199100 0.0 1033263
07:00+3nne511100100 0.0 1034294
10:00+4ene512100100 0.0 1035280
13:00+7ene5998100 0.0 1035338
16:00+10ene4995100 0.0 1035330
19:00+9ene379584 0.0 1035135
22:00+7ene369972 0.0 103593
13 april, tue
tue1301:00+7e38100100 0.0 1036170
04:00+6ese25100100 0.0 1036111
07:00+6se2410095 0.0 103696
10:00+12sse367938 0.0 1035305
13:00+16sse575776 0.0 1034749
16:00+17sse56506 0.0 10331015
19:00+14se346624 0.0 103162
22:00+11sse35785 0.0 103263
14 april, wed
wed1401:00+8s33725 0.0 103229
04:00+7sse22715 0.0 103112
07:00+6se227222 0.0 103127
10:00+11se46635 0.0 1030342
13:00+15se56565 0.0 1028849
16:00+16se56535 0.0 10261039
19:00+14se36673 0.0 1025144
22:00+11se34790 0.0 102557
15 april, thu
thu1501:00+9sse22865 0.0 102420
04:00+8sse22880 0.0 102311
07:00+8sse22890 0.0 102316
10:00+13sse23660 0.0 1022326
13:00+16sse34480 0.0 10211107
16:00+18ssw34424 0.0 10201692
19:00+15s22564 0.0 101931
22:00+12sse2265100 0.0 101910
16 april, fri
fri1601:00+10ssw11714 0.0 101810
04:00+9ssw117766 0.0 101810
07:00+9nnw11775 0.0 101810
10:00+14n22617 0.0 1018277
13:00+17n335121 0.0 10181003
16:00+17n44435 0.0 10181905
19:00+14ne596758 0.1 1019621
22:00+7ne7128185 0.1 1023563